Gainesville, FL

4:30 AM EST on December 07, 2019 (GMT -0500)
Gainesville Regional

Weather History for KGNV - October, 2019

Change the Weather History Date:

Monday, October 28, 2019

  Actual Average Record
Temperature  
Mean Temperature 78 °F 68 °F  
Max Temperature 87 °F 79 °F 91 °F (2010)
Min Temperature 68 °F 56 °F 34 °F (2008)
Degree Days  
Heating Degree Days 0 2  
Month to date heating degree days 0 20  
Since 1 July heating degree days 0 20  
Cooling Degree Days 13 4  
Month to date cooling degree days 298 199  
Year to date cooling degree days 3314 2539  
Growing Degree Days 27 (Base 50)    
Moisture  
Dew Point 71 °F    
Average Humidity 83    
Maximum Humidity 100    
Minimum Humidity 65    
Precipitation  
Precipitation T in 0.07 in 1.13 in (2006)
Month to date precipitation 3.59 2.68  
Year to date precipitation 41.83 42.67  
Snow  
Snow 0.00 in 0.00 in 0.00 in ()
Month to date snowfall 0.0 0.0  
Since 1 July snowfall 0.0 0.0  
Since 1 September snowfall 0.0 0.0  
Snow Depth 0.00 in    
Sea Level Pressure  
Sea Level Pressure 30.06 in    
Wind  
Wind Speed 1 mph (SE)    
Max Wind Speed 10 mph    
Max Gust Speed 27 mph    
Visibility 8 miles    
Events Fog , Rain , Thunderstorm    
T = Trace of Precipitation, MM = Missing Value Source: NWS Daily Summary

Daily Weather History Graph

Daily Weather History Graph

Search for Another Location

Airport or City:

Astronomy

Oct. 28, 2019 Rise Set
Actual Time 7:39 AM EDT 6:45 PM EDT
Civil Twilight 7:14 AM EDT 7:10 PM EDT
Nautical Twilight 6:46 AM EDT 7:38 PM EDT
Astronomical Twilight 6:19 AM EDT 8:06 PM EDT
Moon 8:01 AM EDT (10/28) 7:30 PM EDT (10/28)
Length of Visible Light 11h 55m
Length of Day
11h 06m
New Moon, 0% of the Moon is Illuminated
Oct 28
New Moon
Nov 4
First Quarter
Nov 12
Full
Nov 19
Last Quarter
Nov 26
New

Hourly Weather History & Observations

Time (EDT) Temp. Heat Index Dew Point Humidity Pressure Visibility Wind Dir Wind Speed Gust Speed Precip Events Conditions
12:53 AM 70.0 °F - 69.1 °F 97% 30.03 in 9.0 mi Calm Calm - N/A   Clear
1:17 AM 71.1 °F - 70.0 °F 96% 30.04 in 2.5 mi Calm Calm - N/A   Partly Cloudy
1:23 AM 70.0 °F - 69.1 °F 97% 30.04 in 1.0 mi Calm Calm - N/A   Mist
1:31 AM 71.1 °F - 70.0 °F 96% 30.04 in 0.5 mi Calm Calm - N/A Fog Fog
1:42 AM 70.0 °F - 69.1 °F 97% 30.04 in 1.2 mi Calm Calm - N/A   Partly Cloudy
1:46 AM 70.0 °F - 69.1 °F 97% 30.04 in 3.0 mi Calm Calm - N/A   Partly Cloudy
1:53 AM 71.1 °F - 70.0 °F 96% 30.03 in 9.0 mi Calm Calm - N/A   Partly Cloudy
2:53 AM 70.0 °F - 69.1 °F 97% 30.03 in 5.0 mi Calm Calm - N/A   Clear
3:53 AM 70.0 °F - 69.1 °F 97% 30.02 in 7.0 mi NW 3.5 mph - N/A   Clear
4:28 AM 70.0 °F - 68.0 °F 93% 30.03 in 9.0 mi Calm Calm - N/A   Mostly Cloudy
4:53 AM 70.0 °F - 69.1 °F 97% 30.03 in 10.0 mi Calm Calm - N/A   Overcast
5:53 AM 71.1 °F - 69.1 °F 93% 30.04 in 10.0 mi Calm Calm - N/A   Overcast
6:35 AM 71.1 °F - 69.1 °F 93% 30.05 in 10.0 mi Calm Calm - N/A   Overcast
6:53 AM 71.1 °F - 69.1 °F 93% 30.05 in 10.0 mi Calm Calm - N/A   Overcast
7:53 AM 71.1 °F - 68.0 °F 90% 30.06 in 10.0 mi Calm Calm - N/A   Overcast
8:53 AM 72.0 °F - 69.1 °F 91% 30.09 in 10.0 mi Variable 3.5 mph - N/A   Scattered Clouds
9:53 AM 73.9 °F - 69.1 °F 85% 30.11 in 10.0 mi North 3.5 mph - N/A   Clear
11:53 AM 80.1 °F 83.6 °F 71.1 °F 74% 30.11 in 10.0 mi Variable 3.5 mph - N/A   Overcast
12:53 PM 82.9 °F 88.8 °F 73.0 °F 72% 30.09 in 10.0 mi SSW 5.8 mph - N/A   Mostly Cloudy
1:43 PM 84.0 °F 90.2 °F 73.0 °F 69% 30.08 in 10.0 mi SW 9.2 mph - N/A   Partly Cloudy
1:53 PM 82.9 °F 88.0 °F 72.0 °F 69% 30.06 in 10.0 mi South 4.6 mph - N/A   Partly Cloudy
2:28 PM 84.9 °F 90.7 °F 72.0 °F 65% 30.06 in 10.0 mi SW 9.2 mph - N/A   Scattered Clouds
2:53 PM 84.9 °F 90.7 °F 72.0 °F 65% 30.04 in 10.0 mi Variable 3.5 mph - N/A   Partly Cloudy
3:53 PM 84.9 °F 90.1 °F 71.1 °F 63% 30.04 in 10.0 mi Calm Calm - N/A   Partly Cloudy
4:53 PM 84.9 °F 90.7 °F 72.0 °F 65% 30.04 in 10.0 mi Calm Calm - N/A   Mostly Cloudy
5:53 PM 84.9 °F 90.7 °F 72.0 °F 65% 30.04 in 10.0 mi Calm Calm - N/A   Overcast
6:53 PM 82.0 °F 87.4 °F 73.0 °F 74% 30.04 in 10.0 mi Calm Calm - N/A   Clear
7:53 PM 77.0 °F - 73.0 °F 88% 30.06 in 10.0 mi Calm Calm - N/A   Clear
8:53 PM 77.0 °F - 73.9 °F 90% 30.08 in 10.0 mi Calm Calm - N/A   Mostly Cloudy
9:53 PM 77.0 °F - 73.9 °F 90% 30.09 in 10.0 mi East 3.5 mph - N/A   Mostly Cloudy
10:20 PM 75.9 °F - 73.9 °F 94% 30.11 in 10.0 mi ESE 3.5 mph - N/A Thunderstorm Mostly Cloudy
10:37 PM 77.0 °F - 73.9 °F 90% 30.11 in 10.0 mi Calm Calm - N/A   Mostly Cloudy
10:48 PM 77.0 °F - 73.4 °F 89% 30.10 in 10.0 mi Calm Calm - N/A Thunderstorm Mostly Cloudy
10:53 PM 77.0 °F - 73.9 °F 90% 30.10 in 10.0 mi Calm Calm - N/A Thunderstorm Mostly Cloudy
11:03 PM 77.0 °F - 73.9 °F 90% 30.10 in 10.0 mi ESE 3.5 mph - 0.00 in Rain Light Rain
11:12 PM 77.0 °F - 75.0 °F 94% 30.10 in 5.0 mi ESE 3.5 mph - 0.00 in Rain Rain
11:21 PM 77.0 °F - 75.0 °F 94% 30.11 in 8.0 mi ENE 3.5 mph - 0.00 in Rain Light Rain
11:53 PM 75.9 °F - 73.9 °F 94% 30.10 in 6.0 mi Calm Calm - 0.00 in   Mostly Cloudy